| time (UTC) | temp C | wind direction | speed KPH | gust KPH | rain 1hr cm | rain 24hr cm | rain mn cm | humidity % | barometer mb |
| 20260906190047 | 36 | 66 | 4.8 | 8.0 | 0.00 | 0.00 | 0.00 | 37 | 1011.3 |
| 20260906185525 | 36 | 0 | 0.0 | 8.0 | 0.00 | 0.00 | 0.00 | 37 | 1011.5 |
| 20260906185025 | 36 | 177 | 4.8 | 8.0 | 0.00 | 0.00 | 0.00 | 37 | 1011.5 |
| 20260906184546 | 36 | 195 | 3.2 | 6.4 | 0.00 | 0.00 | 0.00 | 37 | 1011.6 |
| 20260906184024 | 36 | 155 | 1.6 | 6.4 | 0.00 | 0.00 | 0.00 | 37 | 1011.8 |
| 20260906183525 | 37 | 0 | 0.0 | 16.1 | 0.00 | 0.00 | 0.00 | 36 | 1011.9 |
| 20260906183054 | 37 | 167 | 6.4 | 17.7 | 0.00 | 0.00 | 0.00 | 35 | 1011.8 |
| 20260906182523 | 38 | 154 | 9.7 | 17.7 | 0.00 | 0.00 | 0.00 | 34 | 1011.9 |
| 20260906182024 | 38 | 138 | 8.0 | 17.7 | 0.00 | 0.00 | 0.00 | 34 | 1012.0 |
| 20260906181549 | 37 | 171 | 1.6 | 14.5 | 0.00 | 0.00 | 0.00 | 37 | 1012.0 |
| 20260906181022 | 36 | 146 | 4.8 | 14.5 | 0.00 | 0.00 | 0.00 | 37 | 1012.1 |
| 20260906180525 | 37 | 140 | 6.4 | 19.3 | 0.00 | 0.00 | 0.00 | 36 | 1012.3 |
| 20260906180047 | 38 | 157 | 11.3 | 19.3 | 0.00 | 0.00 | 0.00 | 34 | 1012.4 |
| 20260906175526 | 38 | 111 | 8.0 | 17.7 | 0.00 | 0.00 | 0.00 | 36 | 1012.6 |
| 20260906175024 | 37 | 64 | 1.6 | 20.9 | 0.00 | 0.00 | 0.00 | 36 | 1012.6 |
| 20260906174558 | 38 | 40 | 9.7 | 20.9 | 0.00 | 0.00 | 0.00 | 35 | 1012.7 |
| 20260906174023 | 37 | 23 | 6.4 | 16.1 | 0.00 | 0.00 | 0.00 | 36 | 1012.7 |
| 20260906173524 | 37 | 59 | 6.4 | 14.5 | 0.00 | 0.00 | 0.00 | 36 | 1012.9 |
| 20260906173045 | 37 | 9 | 3.2 | 14.5 | 0.00 | 0.00 | 0.00 | 36 | 1012.9 |
| 20260906172528 | 37 | 128 | 4.8 | 17.7 | 0.00 | 0.00 | 0.00 | 37 | 1013.1 |
| 20260906172026 | 37 | 96 | 11.3 | 17.7 | 0.00 | 0.00 | 0.00 | 36 | 1013.1 |
| 20260906171543 | 37 | 105 | 6.4 | 14.5 | 0.00 | 0.00 | 0.00 | 37 | 1013.3 |
| 20260906171024 | 37 | 100 | 8.0 | 14.5 | 0.00 | 0.00 | 0.00 | 38 | 1013.3 |
| 20260906170525 | 37 | 105 | 9.7 | 14.5 | 0.00 | 0.00 | 0.00 | 37 | 1013.4 |
| 20260906170045 | 37 | 125 | 3.2 | 11.3 | 0.00 | 0.00 | 0.00 | 37 | 1013.4 |
| 20260906165524 | 37 | 99 | 3.2 | 11.3 | 0.00 | 0.00 | 0.00 | 38 | 1013.4 |
| 20260906165027 | 36 | 123 | 1.6 | 9.7 | 0.00 | 0.00 | 0.00 | 39 | 1013.4 |
| 20260906164545 | 36 | 186 | 1.6 | 11.3 | 0.00 | 0.00 | 0.00 | 38 | 1013.5 |
| 20260906164024 | 36 | 227 | 3.2 | 11.3 | 0.00 | 0.00 | 0.00 | 38 | 1013.5 |
| 20260906163523 | 36 | 22 | 4.8 | 11.3 | 0.00 | 0.00 | 0.00 | 38 | 1013.5 |
| 20260906163050 | 37 | 0 | 1.6 | 12.9 | 0.00 | 0.00 | 0.00 | 37 | 1013.5 |
| 20260906162530 | 37 | 12 | 6.4 | 12.9 | 0.00 | 0.00 | 0.00 | 39 | 1013.4 |
| 20260906162024 | 36 | 40 | 6.4 | 11.3 | 0.00 | 0.00 | 0.00 | 38 | 1013.4 |
| 20260906161550 | 36 | 182 | 0.0 | 11.3 | 0.00 | 0.00 | 0.00 | 39 | 1013.6 |
| 20260906161027 | 36 | 0 | 4.8 | 14.5 | 0.00 | 0.00 | 0.00 | 40 | 1013.5 |
| 20260906160525 | 36 | 164 | 4.8 | 14.5 | 0.00 | 0.00 | 0.00 | 40 | 1013.5 |
| 20260906160048 | 35 | 156 | 3.2 | 14.5 | 0.00 | 0.00 | 0.00 | 41 | 1013.6 |
| 20260906155529 | 35 | 163 | 8.0 | 14.5 | 0.00 | 0.00 | 0.00 | 41 | 1013.6 |
| 20260906155025 | 35 | 208 | 6.4 | 16.1 | 0.00 | 0.00 | 0.00 | 42 | 1013.5 |
| 20260906154544 | 35 | 202 | 6.4 | 16.1 | 0.00 | 0.00 | 0.00 | 43 | 1013.5 |
| 20260906154028 | 35 | 216 | 6.4 | 14.5 | 0.00 | 0.00 | 0.00 | 45 | 1013.4 |
| 20260906153528 | 34 | 160 | 8.0 | 14.5 | 0.00 | 0.00 | 0.00 | 46 | 1013.5 |
| 20260906153049 | 34 | 181 | 4.8 | 11.3 | 0.00 | 0.00 | 0.00 | 45 | 1013.4 |
| 20260906152524 | 33 | 160 | 1.6 | 11.3 | 0.00 | 0.00 | 0.00 | 47 | 1013.4 |
| 20260906152027 | 33 | 157 | 1.6 | 8.0 | 0.00 | 0.00 | 0.00 | 47 | 1013.5 |
| 20260906151546 | 33 | 174 | 1.6 | 8.0 | 0.00 | 0.00 | 0.00 | 49 | 1013.3 |
| 20260906151031 | 33 | 0 | 3.2 | 8.0 | 0.00 | 0.00 | 0.00 | 50 | 1013.4 |
| 20260906150524 | 33 | 132 | 1.6 | 6.4 | 0.00 | 0.00 | 0.00 | 50 | 1013.3 |
| 20260906150045 | 32 | 182 | 1.6 | 6.4 | 0.00 | 0.00 | 0.00 | 51 | 1013.3 |
| 20260906145524 | 32 | 0 | 1.6 | 6.4 | 0.00 | 0.00 | 0.00 | 51 | 1013.3 |
| 20260906145025 | 32 | 118 | 1.6 | 9.7 | 0.00 | 0.00 | 0.00 | 52 | 1013.3 |
| 20260906144548 | 32 | 129 | 3.2 | 9.7 | 0.00 | 0.00 | 0.00 | 51 | 1013.3 |
| 20260906144024 | 32 | 167 | 4.8 | 9.7 | 0.00 | 0.00 | 0.00 | 54 | 1013.3 |
| 20260906143524 | 31 | 0 | 0.0 | 4.8 | 0.00 | 0.00 | 0.00 | 54 | 1013.2 |
| 20260906143049 | 31 | 98 | 3.2 | 6.4 | 0.00 | 0.00 | 0.00 | 55 | 1013.2 |
| 20260906142525 | 30 | 142 | 1.6 | 6.4 | 0.00 | 0.00 | 0.00 | 57 | 1013.3 |
| 20260906142027 | 30 | 0 | 0.0 | 3.2 | 0.00 | 0.00 | 0.00 | 58 | 1013.2 |
| 20260906141544 | 29 | 0 | 0.0 | 4.8 | 0.00 | 0.00 | 0.00 | 59 | 1013.3 |
| 20260906141024 | 29 | 0 | 0.0 | 4.8 | 0.00 | 0.00 | 0.00 | 59 | 1013.3 |
| 20260906140526 | 28 | 87 | 1.6 | 6.4 | 0.00 | 0.00 | 0.00 | 60 | 1013.4 |
| 20260906140049 | 28 | 81 | 3.2 | 6.4 | 0.00 | 0.00 | 0.00 | 62 | 1013.3 |
| 20260906135524 | 28 | 105 | 3.2 | 6.4 | 0.00 | 0.00 | 0.00 | 63 | 1013.2 |
| 20260906135023 | 27 | 97 | 1.6 | 6.4 | 0.00 | 0.00 | 0.00 | 64 | 1013.1 |
| 20260906134543 | 27 | 0 | 1.6 | 8.0 | 0.00 | 0.00 | 0.00 | 66 | 1013.0 |
| 20260906134023 | 26 | 68 | 3.2 | 8.0 | 0.00 | 0.00 | 0.00 | 67 | 1013.1 |
| 20260906133525 | 26 | 69 | 4.8 | 8.0 | 0.00 | 0.00 | 0.00 | 69 | 1013.1 |
| 20260906133052 | 26 | 61 | 4.8 | 9.7 | 0.00 | 0.00 | 0.00 | 70 | 1013.0 |
| 20260906132524 | 25 | 55 | 4.8 | 9.7 | 0.00 | 0.00 | 0.00 | 72 | 1012.9 |
| 20260906132024 | 25 | 56 | 6.4 | 9.7 | 0.00 | 0.00 | 0.00 | 74 | 1012.9 |
| 20260906131546 | 25 | 53 | 4.8 | 9.7 | 0.00 | 0.00 | 0.00 | 76 | 1012.8 |
| 20260906131022 | 24 | 52 | 6.4 | 9.7 | 0.00 | 0.00 | 0.00 | 78 | 1012.7 |
| 20260906130524 | 23 | 49 | 4.8 | 8.0 | 0.00 | 0.00 | 0.00 | 81 | 1012.7 |
| 20260906130055 | 22 | 54 | 4.8 | 6.4 | 0.00 | 0.00 | 0.00 | 85 | 1012.6 |
| 20260906125524 | 22 | 226 | 1.6 | 3.2 | 0.00 | 0.00 | 0.00 | 86 | 1012.4 |
| 20260906125026 | 22 | 0 | 0.0 | 1.6 | 0.00 | 0.00 | 0.00 | 85 | 1012.2 |
| 20260906124551 | 21 | 0 | 0.0 | 3.2 | 0.00 | 0.00 | 0.00 | 85 | 1012.1 |
| 20260906124026 | 21 | 0 | 0.0 | 3.2 | 0.00 | 0.00 | 0.00 | 85 | 1012.2 |
| 20260906123524 | 21 | 0 | 0.0 | 0.0 | 0.00 | 0.00 | 0.00 | 85 | 1012.1 |
| 20260906123048 | 21 | 0 | 0.0 | 0.0 | 0.00 | 0.00 | 0.00 | 85 | 1012.0 |
| 20260906122526 | 21 | 0 | 0.0 | 0.0 | 0.00 | 0.00 | 0.00 | 84 | 1012.0 |
| 20260906122024 | 21 | 0 | 0.0 | 0.0 | 0.00 | 0.00 | 0.00 | 84 | 1011.9 |
| 20260906121547 | 21 | 0 | 0.0 | 0.0 | 0.00 | 0.00 | 0.00 | 84 | 1011.9 |
| 20260906121023 | 21 | 0 | 0.0 | 0.0 | 0.00 | 0.00 | 0.00 | 83 | 1011.9 |
| 20260906120525 | 21 | 0 | 0.0 | 0.0 | 0.00 | 0.00 | 0.00 | 83 | 1011.7 |
| 20260906120043 | 21 | 0 | 0.0 | 0.0 | 0.00 | 0.00 | 0.00 | 82 | 1011.7 |
| 20260906115526 | 21 | 0 | 0.0 | 0.0 | 0.00 | 0.00 | 0.00 | 83 | 1011.6 |
| 20260906115025 | 21 | 0 | 0.0 | 0.0 | 0.00 | 0.00 | 0.00 | 83 | 1011.5 |
| 20260906114548 | 21 | 0 | 0.0 | 0.0 | 0.00 | 0.00 | 0.00 | 82 | 1011.5 |
| 20260906114024 | 21 | 0 | 0.0 | 0.0 | 0.00 | 0.00 | 0.00 | 82 | 1011.4 |
| 20260906113523 | 21 | 0 | 0.0 | 0.0 | 0.00 | 0.00 | 0.00 | 82 | 1011.5 |
| 20260906113045 | 21 | 0 | 0.0 | 0.0 | 0.00 | 0.00 | 0.00 | 82 | 1011.4 |
| 20260906112528 | 21 | 0 | 0.0 | 0.0 | 0.00 | 0.00 | 0.00 | 82 | 1011.4 |
| 20260906112025 | 21 | 0 | 0.0 | 0.0 | 0.00 | 0.00 | 0.00 | 82 | 1011.3 |
| 20260906111546 | 21 | 0 | 0.0 | 4.8 | 0.00 | 0.00 | 0.00 | 81 | 1011.3 |
| 20260906111024 | 21 | 0 | 0.0 | 4.8 | 0.00 | 0.00 | 0.00 | 81 | 1011.4 |
| 20260906110524 | 21 | 62 | 0.0 | 4.8 | 0.00 | 0.00 | 0.00 | 81 | 1011.3 |
| 20260906110041 | 21 | 0 | 1.6 | 4.8 | 0.00 | 0.00 | 0.00 | 81 | 1011.2 |
| 20260906105524 | 21 | 62 | 3.2 | 4.8 | 0.00 | 0.00 | 0.00 | 81 | 1011.3 |
| 20260906105027 | 21 | 62 | 3.2 | 4.8 | 0.00 | 0.00 | 0.00 | 81 | 1011.2 |
| 20260906104541 | 21 | 62 | 3.2 | 4.8 | 0.00 | 0.00 | 0.00 | 81 | 1011.2 |
| 20260906104024 | 22 | 62 | 3.2 | 4.8 | 0.00 | 0.00 | 0.00 | 80 | 1011.2 |
| 20260906103526 | 22 | 62 | 0.0 | 4.8 | 0.00 | 0.00 | 0.00 | 80 | 1011.1 |
| 20260906103045 | 22 | 0 | 0.0 | 0.0 | 0.00 | 0.00 | 0.00 | 80 | 1011.2 |
| 20260906102525 | 22 | 0 | 0.0 | 0.0 | 0.00 | 0.00 | 0.00 | 80 | 1011.2 |
| 20260906102023 | 22 | 0 | 0.0 | 1.6 | 0.00 | 0.00 | 0.00 | 80 | 1011.2 |
| 20260906101546 | 22 | 0 | 0.0 | 4.8 | 0.00 | 0.00 | 0.00 | 80 | 1011.1 |
| 20260906101024 | 22 | 0 | 0.0 | 4.8 | 0.00 | 0.00 | 0.00 | 79 | 1011.1 |
| 20260906100524 | 22 | 62 | 1.6 | 4.8 | 0.00 | 0.00 | 0.00 | 79 | 1011.1 |
| 20260906100043 | 22 | 62 | 1.6 | 4.8 | 0.00 | 0.00 | 0.00 | 79 | 1011.1 |
| 20260906095521 | 22 | 62 | 1.6 | 3.2 | 0.00 | 0.00 | 0.00 | 79 | 1011.2 |
| 20260906095024 | 22 | 62 | 0.0 | 3.2 | 0.00 | 0.00 | 0.00 | 79 | 1011.2 |
| 20260906094546 | 22 | 0 | 1.6 | 3.2 | 0.00 | 0.00 | 0.00 | 78 | 1011.2 |
| 20260906094024 | 22 | 62 | 1.6 | 3.2 | 0.00 | 0.00 | 0.00 | 78 | 1011.3 |
| 20260906093525 | 22 | 0 | 0.0 | 0.0 | 0.00 | 0.00 | 0.00 | 79 | 1011.2 |
| 20260906093054 | 22 | 0 | 0.0 | 3.2 | 0.00 | 0.00 | 0.00 | 78 | 1011.3 |
| 20260906092523 | 22 | 0 | 0.0 | 3.2 | 0.00 | 0.00 | 0.00 | 77 | 1011.3 |
| 20260906092025 | 22 | 62 | 1.6 | 4.8 | 0.00 | 0.00 | 0.00 | 77 | 1011.3 |
| 20260906091543 | 22 | 62 | 1.6 | 4.8 | 0.00 | 0.00 | 0.00 | 77 | 1011.3 |
| 20260906091024 | 22 | 62 | 3.2 | 4.8 | 0.00 | 0.00 | 0.00 | 77 | 1011.1 |
| 20260906090525 | 22 | 62 | 1.6 | 4.8 | 0.00 | 0.00 | 0.00 | 77 | 1011.1 |
| 20260906090043 | 22 | 62 | 1.6 | 4.8 | 0.00 | 0.00 | 0.00 | 76 | 1011.1 |
| 20260906085524 | 22 | 62 | 3.2 | 4.8 | 0.00 | 0.00 | 0.00 | 77 | 1011.2 |
| 20260906085024 | 22 | 62 | 1.6 | 6.4 | 0.00 | 0.00 | 0.00 | 76 | 1011.1 |
| 20260906084554 | 22 | 62 | 1.6 | 6.4 | 0.00 | 0.00 | 0.00 | 76 | 1011.0 |
| 20260906084024 | 23 | 62 | 3.2 | 6.4 | 0.00 | 0.00 | 0.00 | 77 | 1011.0 |
| 20260906083524 | 23 | 0 | 0.0 | 0.0 | 0.00 | 0.00 | 0.00 | 77 | 1010.9 |
| 20260906083044 | 23 | 0 | 0.0 | 0.0 | 0.00 | 0.00 | 0.00 | 77 | 1011.1 |
| 20260906082523 | 23 | 0 | 0.0 | 0.0 | 0.00 | 0.00 | 0.00 | 76 | 1011.1 |
| 20260906082024 | 23 | 0 | 0.0 | 3.2 | 0.00 | 0.00 | 0.00 | 76 | 1011.0 |
| 20260906081551 | 23 | 0 | 0.0 | 3.2 | 0.00 | 0.00 | 0.00 | 76 | 1011.0 |
| 20260906081024 | 23 | 71 | 0.0 | 4.8 | 0.00 | 0.00 | 0.00 | 75 | 1011.1 |
| 20260906080525 | 23 | 71 | 3.2 | 4.8 | 0.00 | 0.00 | 0.00 | 75 | 1011.1 |
| 20260906080045 | 23 | 71 | 3.2 | 4.8 | 0.00 | 0.00 | 0.00 | 75 | 1011.1 |
| 20260906075524 | 23 | 71 | 1.6 | 3.2 | 0.00 | 0.00 | 0.00 | 75 | 1011.0 |
| 20260906075024 | 23 | 71 | 0.0 | 3.2 | 0.00 | 0.00 | 0.00 | 75 | 1011.0 |
| 20260906074547 | 23 | 0 | 0.0 | 4.8 | 0.00 | 0.00 | 0.00 | 74 | 1011.0 |
| 20260906074024 | 23 | 71 | 1.6 | 6.4 | 0.00 | 0.00 | 0.00 | 74 | 1011.0 |
| 20260906073524 | 23 | 71 | 3.2 | 6.4 | 0.00 | 0.00 | 0.00 | 75 | 1010.8 |
| 20260906073055 | 23 | 90 | 3.2 | 4.8 | 0.00 | 0.00 | 0.00 | 73 | 1010.7 |
| 20260906072527 | 23 | 90 | 1.6 | 4.8 | 0.00 | 0.00 | 0.00 | 72 | 1010.8 |
| 20260906072023 | 23 | 90 | 1.6 | 3.2 | 0.00 | 0.00 | 0.00 | 72 | 1010.8 |
| 20260906071544 | 24 | 90 | 0.0 | 3.2 | 0.00 | 0.00 | 0.00 | 71 | 1010.9 |
| 20260906071024 | 24 | 90 | 0.0 | 3.2 | 0.00 | 0.00 | 0.00 | 71 | 1010.8 |
| 20260906070525 | 24 | 0 | 0.0 | 1.6 | 0.00 | 0.00 | 0.00 | 71 | 1010.8 |
| 20260906070056 | 24 | 90 | 0.0 | 1.6 | 0.00 | 0.00 | 0.00 | 71 | 1010.8 |
| 20260906065524 | 24 | 0 | 0.0 | 1.6 | 0.00 | 0.00 | 0.00 | 71 | 1010.8 |
| 20260906065023 | 24 | 0 | 0.0 | 1.6 | 0.00 | 0.00 | 0.00 | 71 | 1010.8 |
| 20260906064544 | 25 | 0 | 0.0 | 3.2 | 0.00 | 0.00 | 0.00 | 69 | 1010.8 |
| 20260906064024 | 25 | 0 | 0.0 | 3.2 | 0.00 | 0.00 | 0.00 | 68 | 1010.7 |
| 20260906063527 | 25 | 90 | 1.6 | 3.2 | 0.00 | 0.00 | 0.00 | 68 | 1010.6 |
| 20260906063047 | 25 | 90 | 1.6 | 4.8 | 0.00 | 0.00 | 0.00 | 67 | 1010.7 |
| 20260906062523 | 25 | 90 | 1.6 | 4.8 | 0.00 | 0.00 | 0.00 | 67 | 1010.7 |
| 20260906062024 | 25 | 90 | 1.6 | 4.8 | 0.00 | 0.00 | 0.00 | 67 | 1010.8 |
| 20260906061559 | 25 | 90 | 3.2 | 4.8 | 0.00 | 0.00 | 0.00 | 66 | 1010.9 |
| 20260906061023 | 25 | 90 | 1.6 | 3.2 | 0.00 | 0.00 | 0.00 | 65 | 1010.9 |
| 20260906060526 | 26 | 90 | 0.0 | 3.2 | 0.00 | 0.00 | 0.00 | 65 | 1011.0 |
| 20260906060045 | 26 | 90 | 1.6 | 3.2 | 0.00 | 0.00 | 0.00 | 65 | 1011.0 |
| 20260906055523 | 26 | 90 | 0.0 | 3.2 | 0.00 | 0.00 | 0.00 | 65 | 1011.0 |
| 20260906055024 | 26 | 0 | 0.0 | 6.4 | 0.00 | 0.00 | 0.00 | 65 | 1011.1 |
| 20260906054552 | 26 | 90 | 0.0 | 8.0 | 0.00 | 0.00 | 0.00 | 64 | 1011.0 |
| 20260906054024 | 26 | 89 | 4.8 | 8.0 | 0.00 | 0.00 | 0.00 | 64 | 1010.9 |
| 20260906053525 | 26 | 83 | 6.4 | 8.0 | 0.00 | 0.00 | 0.00 | 64 | 1010.9 |
| 20260906053051 | 26 | 83 | 4.8 | 6.4 | 0.00 | 0.00 | 0.00 | 64 | 1010.9 |
| 20260906052524 | 26 | 82 | 4.8 | 6.4 | 0.00 | 0.00 | 0.00 | 64 | 1010.9 |
| 20260906052028 | 26 | 78 | 3.2 | 9.7 | 0.00 | 0.00 | 0.00 | 63 | 1011.0 |
| 20260906051545 | 26 | 88 | 3.2 | 9.7 | 0.00 | 0.00 | 0.00 | 63 | 1011.0 |
| 20260906051027 | 26 | 80 | 6.4 | 11.3 | 0.00 | 0.00 | 0.00 | 63 | 1010.9 |
| 20260906050523 | 26 | 84 | 6.4 | 11.3 | 0.00 | 0.00 | 0.00 | 63 | 1010.9 |
| 20260906050105 | 26 | 82 | 4.8 | 9.7 | 0.00 | 0.00 | 0.00 | 63 | 1011.0 |
| 20260906045526 | 26 | 84 | 3.2 | 6.4 | 0.00 | 0.00 | 0.00 | 63 | 1011.0 |
| 20260906045024 | 26 | 83 | 1.6 | 6.4 | 0.00 | 0.00 | 0.00 | 63 | 1011.1 |
| 20260906044542 | 26 | 82 | 1.6 | 6.4 | 0.00 | 0.00 | 0.00 | 63 | 1011.0 |
| 20260906044023 | 26 | 86 | 4.8 | 6.4 | 0.00 | 0.00 | 0.00 | 63 | 1011.0 |
| 20260906043524 | 26 | 87 | 3.2 | 9.7 | 0.00 | 0.00 | 0.00 | 63 | 1011.0 |
| 20260906043058 | 26 | 82 | 4.8 | 11.3 | 0.00 | 0.00 | 0.00 | 63 | 1011.0 |
| 20260906042525 | 26 | 81 | 4.8 | 11.3 | 0.00 | 0.00 | 0.00 | 63 | 1010.9 |
| 20260906042024 | 26 | 86 | 4.8 | 11.3 | 0.00 | 0.00 | 0.00 | 63 | 1011.0 |
| 20260906041544 | 26 | 90 | 4.8 | 9.7 | 0.00 | 0.00 | 0.00 | 64 | 1011.0 |
| 20260906041025 | 26 | 94 | 4.8 | 9.7 | 0.00 | 0.00 | 0.00 | 64 | 1011.0 |
| 20260906040524 | 27 | 84 | 3.2 | 6.4 | 0.00 | 0.00 | 0.00 | 63 | 1010.9 |
| 20260906040104 | 27 | 84 | 4.8 | 6.4 | 0.00 | 0.00 | 0.00 | 63 | 1011.0 |
| 20260906035524 | 27 | 94 | 4.8 | 6.4 | 0.00 | 0.00 | 0.00 | 63 | 1011.0 |
| 20260906035024 | 27 | 94 | 3.2 | 4.8 | 0.00 | 0.00 | 0.00 | 61 | 1010.9 |
| 20260906034542 | 27 | 94 | 3.2 | 4.8 | 0.00 | 0.00 | 0.00 | 61 | 1011.0 |
| 20260906034025 | 27 | 94 | 3.2 | 6.4 | 0.00 | 0.00 | 0.00 | 61 | 1010.9 |
| 20260906033524 | 28 | 94 | 3.2 | 6.4 | 0.00 | 0.00 | 0.00 | 60 | 1010.8 |
| 20260906033046 | 28 | 98 | 1.6 | 4.8 | 0.00 | 0.00 | 0.00 | 59 | 1010.8 |
| 20260906032523 | 28 | 85 | 1.6 | 6.4 | 0.00 | 0.00 | 0.00 | 59 | 1010.9 |
| 20260906032023 | 28 | 85 | 1.6 | 6.4 | 0.00 | 0.00 | 0.00 | 59 | 1011.0 |
| 20260906031542 | 28 | 82 | 4.8 | 6.4 | 0.00 | 0.00 | 0.00 | 59 | 1011.0 |
| 20260906031024 | 28 | 82 | 4.8 | 6.4 | 0.00 | 0.00 | 0.00 | 59 | 1010.9 |
| 20260906030525 | 28 | 79 | 3.2 | 8.0 | 0.00 | 0.00 | 0.00 | 59 | 1010.9 |
| 20260906030046 | 28 | 76 | 4.8 | 11.3 | 0.00 | 0.00 | 0.00 | 59 | 1010.8 |
| 20260906025524 | 28 | 82 | 4.8 | 11.3 | 0.00 | 0.00 | 0.00 | 59 | 1010.8 |
| 20260906025024 | 28 | 77 | 4.8 | 6.4 | 0.00 | 0.00 | 0.00 | 60 | 1010.7 |
| 20260906024544 | 28 | 92 | 3.2 | 6.4 | 0.00 | 0.00 | 0.00 | 60 | 1010.6 |
| 20260906024024 | 28 | 87 | 3.2 | 6.4 | 0.00 | 0.00 | 0.00 | 60 | 1010.5 |
| 20260906023524 | 28 | 113 | 3.2 | 4.8 | 0.00 | 0.00 | 0.00 | 60 | 1010.5 |
| 20260906023057 | 28 | 113 | 1.6 | 4.8 | 0.00 | 0.00 | 0.00 | 60 | 1010.4 |
| 20260906022525 | 28 | 113 | 1.6 | 3.2 | 0.00 | 0.00 | 0.00 | 59 | 1010.4 |
| 20260906022024 | 28 | 113 | 1.6 | 4.8 | 0.00 | 0.00 | 0.00 | 59 | 1010.3 |
| 20260906021547 | 28 | 113 | 1.6 | 4.8 | 0.00 | 0.00 | 0.00 | 59 | 1010.1 |
| 20260906021024 | 28 | 113 | 1.6 | 4.8 | 0.00 | 0.00 | 0.00 | 58 | 1010.1 |
| 20260906020524 | 29 | 113 | 1.6 | 4.8 | 0.00 | 0.00 | 0.00 | 57 | 1010.0 |
| 20260906020046 | 29 | 113 | 1.6 | 4.8 | 0.00 | 0.00 | 0.00 | 56 | 1009.9 |
| 20260906015523 | 29 | 113 | 1.6 | 4.8 | 0.00 | 0.00 | 0.00 | 56 | 1009.9 |
| 20260906015021 | 30 | 113 | 3.2 | 4.8 | 0.00 | 0.00 | 0.00 | 55 | 1009.9 |
| 20260906014555 | 30 | 113 | 1.6 | 4.8 | 0.00 | 0.00 | 0.00 | 54 | 1009.9 |
| 20260906014025 | 30 | 113 | 3.2 | 4.8 | 0.00 | 0.00 | 0.00 | 54 | 1009.7 |
| 20260906013524 | 30 | 109 | 3.2 | 4.8 | 0.00 | 0.00 | 0.00 | 53 | 1009.6 |
| 20260906013049 | 30 | 109 | 3.2 | 4.8 | 0.00 | 0.00 | 0.00 | 53 | 1009.5 |
| 20260906012527 | 31 | 109 | 1.6 | 3.2 | 0.00 | 0.00 | 0.00 | 52 | 1009.5 |
| 20260906012025 | 31 | 109 | 1.6 | 3.2 | 0.00 | 0.00 | 0.00 | 52 | 1009.5 |
| 20260906011553 | 31 | 109 | 1.6 | 3.2 | 0.00 | 0.00 | 0.00 | 51 | 1009.4 |
| 20260906011023 | 31 | 109 | 1.6 | 4.8 | 0.00 | 0.00 | 0.00 | 50 | 1009.3 |
| 20260906010528 | 31 | 109 | 1.6 | 6.4 | 0.00 | 0.00 | 0.00 | 49 | 1009.3 |
| 20260906010047 | 32 | 109 | 1.6 | 6.4 | 0.00 | 0.00 | 0.00 | 49 | 1009.2 |
| 20260906005528 | 32 | 109 | 3.2 | 9.7 | 0.00 | 0.00 | 0.00 | 48 | 1009.1 |
| 20260906005025 | 32 | 95 | 3.2 | 9.7 | 0.00 | 0.00 | 0.00 | 48 | 1009.1 |
| 20260906004544 | 32 | 98 | 4.8 | 9.7 | 0.00 | 0.00 | 0.00 | 47 | 1009.0 |
| 20260906004031 | 32 | 113 | 3.2 | 9.7 | 0.00 | 0.00 | 0.00 | 47 | 1009.0 |
| 20260906003530 | 33 | 130 | 3.2 | 9.7 | 0.00 | 0.00 | 0.00 | 46 | 1009.1 |
| 20260906003052 | 33 | 114 | 4.8 | 9.7 | 0.00 | 0.00 | 0.00 | 46 | 1009.2 |
| 20260906002524 | 33 | 116 | 4.8 | 11.3 | 0.00 | 0.00 | 0.00 | 45 | 1009.2 |
| 20260906002025 | 34 | 136 | 4.8 | 12.9 | 0.00 | 0.00 | 0.00 | 44 | 1009.1 |
| 20260906001545 | 35 | 127 | 6.4 | 12.9 | 0.00 | 0.00 | 0.00 | 43 | 1009.2 |
| 20260906001025 | 35 | 105 | 6.4 | 14.5 | 0.00 | 0.00 | 0.00 | 42 | 1009.2 |
| 20260906000525 | 35 | 118 | 6.4 | 14.5 | 0.00 | 0.00 | 0.00 | 40 | 1009.3 |
| 20260906000052 | 36 | 106 | 6.4 | 12.9 | 0.00 | 0.00 | 0.00 | 40 | 1009.3 |
| 20260905235527 | 36 | 106 | 9.7 | 12.9 | 0.00 | 0.00 | 0.00 | 39 | 1009.3 |
| 20260905235024 | 36 | 111 | 3.2 | 12.9 | 0.00 | 0.00 | 0.00 | 39 | 1009.3 |
| 20260905234553 | 36 | 121 | 3.2 | 17.7 | 0.00 | 0.00 | 0.00 | 38 | 1009.4 |
| 20260905234025 | 37 | 135 | 8.0 | 17.7 | 0.00 | 0.00 | 0.00 | 37 | 1009.4 |
| 20260905233524 | 37 | 143 | 6.4 | 22.5 | 0.00 | 0.00 | 0.00 | 37 | 1009.4 |
| 20260905233046 | 37 | 105 | 9.7 | 22.5 | 0.00 | 0.00 | 0.00 | 36 | 1009.3 |
| 20260905232525 | 37 | 129 | 14.5 | 22.5 | 0.00 | 0.00 | 0.00 | 36 | 1009.1 |
| 20260905232023 | 37 | 119 | 4.8 | 16.1 | 0.00 | 0.00 | 0.00 | 36 | 1009.2 |
| 20260905231546 | 37 | 110 | 11.3 | 16.1 | 0.00 | 0.00 | 0.00 | 36 | 1009.2 |
| 20260905231023 | 37 | 127 | 4.8 | 16.1 | 0.00 | 0.00 | 0.00 | 35 | 1009.2 |
| 20260905230524 | 38 | 126 | 9.7 | 20.9 | 0.00 | 0.00 | 0.00 | 34 | 1009.3 |
| 20260905230043 | 38 | 124 | 4.8 | 20.9 | 0.00 | 0.00 | 0.00 | 34 | 1009.2 |
| 20260905225526 | 38 | 122 | 14.5 | 20.9 | 0.00 | 0.00 | 0.00 | 34 | 1009.2 |
| 20260905225023 | 38 | 116 | 14.5 | 20.9 | 0.00 | 0.00 | 0.00 | 34 | 1009.3 |
| 20260905224559 | 38 | 123 | 3.2 | 19.3 | 0.00 | 0.00 | 0.00 | 34 | 1009.3 |
| 20260905224024 | 38 | 122 | 12.9 | 19.3 | 0.00 | 0.00 | 0.00 | 34 | 1009.3 |
| 20260905223529 | 38 | 132 | 8.0 | 24.1 | 0.00 | 0.00 | 0.00 | 34 | 1009.3 |
| 20260905223045 | 38 | 104 | 8.0 | 24.1 | 0.00 | 0.00 | 0.00 | 33 | 1009.3 |
| 20260905222524 | 38 | 127 | 14.5 | 24.1 | 0.00 | 0.00 | 0.00 | 33 | 1009.2 |
| 20260905222023 | 38 | 105 | 8.0 | 19.3 | 0.00 | 0.00 | 0.00 | 32 | 1009.2 |
| 20260905221544 | 38 | 157 | 9.7 | 27.4 | 0.00 | 0.00 | 0.00 | 32 | 1009.2 |
| 20260905221023 | 38 | 108 | 17.7 | 27.4 | 0.00 | 0.00 | 0.00 | 32 | 1009.2 |
| 20260905220525 | 38 | 129 | 12.9 | 24.1 | 0.00 | 0.00 | 0.00 | 33 | 1009.2 |
| 20260905220046 | 38 | 104 | 16.1 | 25.7 | 0.00 | 0.00 | 0.00 | 32 | 1009.2 |
| 20260905215526 | 38 | 138 | 9.7 | 25.7 | 0.00 | 0.00 | 0.00 | 33 | 1009.2 |
| 20260905215027 | 39 | 105 | 16.1 | 25.7 | 0.00 | 0.00 | 0.00 | 33 | 1009.3 |
| 20260905214546 | 38 | 121 | 8.0 | 25.7 | 0.00 | 0.00 | 0.00 | 34 | 1009.3 |
| 20260905214025 | 38 | 105 | 12.9 | 27.4 | 0.00 | 0.00 | 0.00 | 33 | 1009.3 |
| 20260905213524 | 39 | 92 | 12.9 | 27.4 | 0.00 | 0.00 | 0.00 | 33 | 1009.2 |
| 20260905213044 | 40 | 90 | 17.7 | 29.0 | 0.00 | 0.00 | 0.00 | 33 | 1009.3 |
| 20260905212524 | 39 | 128 | 11.3 | 29.0 | 0.00 | 0.00 | 0.00 | 33 | 1009.3 |
| 20260905212027 | 39 | 129 | 12.9 | 24.1 | 0.00 | 0.00 | 0.00 | 33 | 1009.4 |
| 20260905211546 | 39 | 140 | 11.3 | 19.3 | 0.00 | 0.00 | 0.00 | 31 | 1009.4 |
| 20260905211024 | 39 | 161 | 9.7 | 27.4 | 0.00 | 0.00 | 0.00 | 32 | 1009.6 |
| 20260905210523 | 39 | 101 | 12.9 | 27.4 | 0.00 | 0.00 | 0.00 | 33 | 1009.7 |
| 20260905210044 | 38 | 119 | 12.9 | 27.4 | 0.00 | 0.00 | 0.00 | 34 | 1009.7 |
| 20260905205524 | 38 | 94 | 4.8 | 20.9 | 0.00 | 0.00 | 0.00 | 34 | 1009.7 |
| 20260905205024 | 39 | 107 | 8.0 | 20.9 | 0.00 | 0.00 | 0.00 | 34 | 1009.9 |
| 20260905204545 | 38 | 119 | 9.7 | 24.1 | 0.00 | 0.00 | 0.00 | 35 | 1010.0 |
| 20260905204023 | 39 | 148 | 14.5 | 24.1 | 0.00 | 0.00 | 0.00 | 34 | 1010.1 |
| 20260905203526 | 39 | 156 | 12.9 | 22.5 | 0.00 | 0.00 | 0.00 | 33 | 1010.1 |
| 20260905203047 | 39 | 146 | 8.0 | 19.3 | 0.00 | 0.00 | 0.00 | 32 | 1010.2 |
| 20260905202526 | 39 | 94 | 6.4 | 22.5 | 0.00 | 0.00 | 0.00 | 32 | 1010.2 |
| 20260905202023 | 39 | 140 | 11.3 | 22.5 | 0.00 | 0.00 | 0.00 | 33 | 1010.4 |
| 20260905201547 | 39 | 136 | 12.9 | 27.4 | 0.00 | 0.00 | 0.00 | 34 | 1010.4 |
| 20260905201028 | 39 | 155 | 11.3 | 27.4 | 0.00 | 0.00 | 0.00 | 33 | 1010.4 |
| 20260905200524 | 38 | 133 | 12.9 | 24.1 | 0.00 | 0.00 | 0.00 | 34 | 1010.6 |
| 20260905200053 | 38 | 140 | 4.8 | 29.0 | 0.00 | 0.00 | 0.00 | 35 | 1010.7 |
| 20260905195531 | 38 | 157 | 8.0 | 29.0 | 0.00 | 0.00 | 0.00 | 35 | 1010.6 |
| 20260905195027 | 38 | 146 | 11.3 | 24.1 | 0.00 | 0.00 | 0.00 | 34 | 1010.6 |
| 20260905194545 | 38 | 111 | 9.7 | 24.1 | 0.00 | 0.00 | 0.00 | 35 | 1010.7 |
| 20260905194024 | 38 | 121 | 8.0 | 27.4 | 0.00 | 0.00 | 0.00 | 35 | 1010.9 |
| 20260905193525 | 38 | 124 | 11.3 | 29.0 | 0.00 | 0.00 | 0.00 | 35 | 1010.9 |
| 20260905193051 | 38 | 113 | 11.3 | 29.0 | 0.00 | 0.00 | 0.00 | 33 | 1011.0 |
| 20260905192525 | 38 | 96 | 12.9 | 22.5 | 0.00 | 0.00 | 0.00 | 36 | 1011.0 |
| 20260905192029 | 38 | 90 | 12.9 | 22.5 | 0.00 | 0.00 | 0.00 | 37 | 1011.1 |
| 20260905191546 | 37 | 87 | 9.7 | 22.5 | 0.00 | 0.00 | 0.00 | 38 | 1011.1 |
| 20260905191026 | 37 | 101 | 6.4 | 27.4 | 0.00 | 0.00 | 0.00 | 37 | 1011.1 |
| 20260905190524 | 37 | 88 | 16.1 | 27.4 | 0.00 | 0.00 | 0.00 | 37 | 1011.3 |